Location: The C. Gantt Observatory
(33.6981°N, 81.6836°W)
Time: 15:06:07
(UTC-04:00)

Daily predictions for brighter satellites

Satellite Brightness Start Highest point End
(mag) Time Altitude Azimuth Time Altitude Azimuth Time Altitude Azimuth
ATLAS CENTAUR R/B 3.1 19:25:53 10° S 19:29:35 48° ESE 19:39:41 10° NE
USA 215 3.3 19:34:23 10° NE 19:40:57 80° SE 19:47:29 10° SW
Cosmos 1441 Rocket 3.2 19:37:44 10° N 19:41:25 58° E 19:45:06 10° SSE
Cosmos 2278 Rocket 2.2 19:36:39 10° NNW 19:42:16 64° ENE 19:47:51 10° SSE
Meteor 2-5 Rocket 3.7 19:37:58 10° N 19:43:36 76° E 19:49:07 10° SSE
Meteor 1-29 4.4 19:43:03 10° NE 19:45:35 19° E 19:48:06 10° SE
Cosmos 2297 4.5 19:40:45 10° N 19:45:46 32° ENE 19:50:45 10° SE
Meteor 1-24 Rocket 4.0 19:42:46 10° N 19:48:10 44° ENE 19:53:19 10° SSE
Meteor 1-28 Rocket 3.3 19:44:52 10° NNE 19:48:31 53° E 19:52:07 10° S
Cosmos 1378 4.1 19:46:22 10° NNE 19:49:32 26° ENE 19:52:41 10° SE
SJ-6B 3.1 19:46:08 10° SSE 19:49:53 46° ENE 19:53:44 10° N
Cosmos 1707 2.6 19:48:25 10° N 19:52:16 77° E 19:56:07 10° S
Cosmos-2242 4.4 19:50:32 10° SE 19:53:34 19° E 19:56:36 10° NE
Helios 1B rocket 2.7 19:58:24 10° NNE 20:02:21 43° E 20:06:16 10° S
SEDSat Delta rocket 4.2 19:57:53 10° WSW 20:04:30 64° SSE 20:10:14 15° E
SeaSat 1 3.5 20:01:53 10° NE 20:05:43 22° ESE 20:09:30 10° SSE
Cosmos 1408 Rocket 4.4 20:03:07 10° NNE 20:06:55 29° ENE 20:10:40 10° SE
Resurs 01 Rocket 2.1 20:03:04 10° SE 20:07:14 41° ENE 20:11:24 10° N
NOSS 3-2 (A) 3.4 20:03:01 10° SSW 20:09:00 89° SE 20:15:29 10° NNE
SAR-Lupe-4 3.8 20:05:35 10° S 20:09:08 72° WSW 20:12:42 10° NNW
Cosmos 2333 Rocket 4.3 20:04:50 10° WSW 20:09:52 30° WNW 20:14:55 10° N
Resurs 1-3 4.2 20:07:21 10° SE 20:11:19 34° ENE 20:15:17 10° N
Okean 3 Rocket 3.6 20:08:54 10° N 20:13:28 88° E 20:18:00 10° S
CZ-4B DEB 4.3 20:15:36 19° ENE 20:15:36 19° ENE 20:17:54 10° NNE
Spot 1 4.3 20:12:35 10° SSE 20:17:25 68° ENE 20:22:01 10° N
Atlas Centaur 2 3.3 20:14:46 10° W 20:23:13 62° SSW 20:28:58 19° ESE
ATLAS CENTAUR R/B 1.2 20:21:33 10° NNW 20:25:41 89° WSW 20:28:47 15° SSE
BREEZE-M DEB (TANK) 4.4 20:22:00 10° NW 20:26:04 80° SW 20:41:19 10° SE
Cosmos 1072 Rocket 4.5 20:20:26 10° S 20:26:34 85° W 20:32:41 10° N
GPS 2-04 Rocket1 3.6 20:24:05 10° SSW 20:27:06 26° SSE 20:27:41 25° SE
ALOS 2.7 20:26:02 18° SE 20:29:01 38° ENE 20:33:20 10° N
In-Cosmos 22 4.3 20:28:37 10° N 20:34:19 60° E 20:39:58 10° SSE
Nadezhda 4 Rocket 4.4 20:29:08 10° N 20:34:59 39° E 20:38:48 20° SE
Spot 2 Rocket 3.4 20:31:49 10° SSE 20:36:52 89° WSW 20:41:56 10° NNW
FREGAT/IRIS 4.1 20:33:57 10° S 20:36:52 39° W 20:39:48 10° NNW
ASTRO E2 2.8 20:33:42 10° WSW 20:37:41 62° S 20:38:55 40° ESE
Cosmos 2056 Rocket 4.1 20:38:32 10° NNW 20:43:53 61° WSW 20:49:11 10° S
OAO 3 Rocket 3.2 20:39:23 10° W 20:44:10 80° N 20:46:04 37° ENE
Helios 1A 3.0 20:40:52 10° S 20:45:02 77° WSW 20:49:14 10° NNW
NOSS 3-2 (C) 3.9 20:40:06 10° SW 20:46:02 62° WNW 20:52:28 10° NNE
CENTAUR R/B 3.0 20:44:13 10° S 20:48:51 32° ESE 20:48:51 32° ESE
ATLAS 5 CENTAUR R/B 2.2 20:45:38 10° SW 20:50:17 62° WNW 20:55:18 10° NNE
CZ-2D R/B 3.4 20:52:08 52° ENE 20:52:08 52° ENE 20:55:44 10° N
Cosmos 1953 2.6 20:48:46 10° SSW 20:52:43 67° W 20:56:42 10° N
Gbstr 26 Del rocket 4.5 20:48:53 10° S 20:51:02 24° SSE 20:51:02 24° SSE
ASTEX 1 3.3 20:49:19 10° NNE 20:54:12 64° E 20:59:02 10° S
Meteor 2-12 Rocket 4.4 20:50:23 10° S 20:56:33 85° W 21:02:44 10° N
SL-16 R/B 3.9 20:51:41 10° SW 20:56:48 34° WNW 21:01:56 10° N
Cosmos 2034 Rocket 4.4 20:54:40 10° SSW 21:00:50 66° W 21:07:07 10° N
Cosmos 1766 Rocket 4.4 21:04:47 10° NNW 21:09:01 50° W 21:12:50 12° SSW
H-2A R/B 3.0 21:12:11 65° NNW 21:12:11 65° NNW 21:15:34 10° NNW
SL-8 R/B 3.6 21:14:25 10° SW 21:19:07 81° NW 21:19:07 81° NW
FENGYUN 3A 4.3 21:25:39 21° SSW 21:29:01 52° W 21:34:16 10° NNW
ERS-1 Rocket 4.5 21:34:40 25° N 21:34:40 25° N 21:36:53 10° N
SeaSat 1 3.7 21:38:42 10° N 21:43:16 38° WNW 21:47:48 10° SW
Cosmos 2369 Rocket 3.6 21:40:46 10° N 21:43:36 28° N 21:43:36 28° N
SEDSat Delta rocket 4.2 21:44:22 10° W 21:50:22 66° SW 21:50:22 66° SW
Cosmos 1943 Rocket 4.5 21:53:09 10° N 21:53:53 13° NNE 21:53:53 13° NNE
BREEZE-M DEB (TANK) 4.3 21:52:27 10° SW 22:08:59 70° SSW 22:08:59 70° SSW
Atlas Centaur 2 4.0 22:05:20 10° W 22:11:38 33° SW 22:11:38 33° SW
CENTAUR R/B 4.4 22:34:20 10° WSW 22:47:41 - NNE 22:36:16 20° WSW
